Tracking 18840 objects as of 18-November-2017
HD Live streaming from Space Station
objects crossing your sky now

COSMOS 2012

Track COSMOS 2012 now!
10-day predictions
COSMOS 2012 is classified as:


NORAD ID: 19906
Int'l Code: 1989-025E
Perigee: 1,462.3 km
Apogee: 1,479.3 km
Inclination: 74.0 °
Period: 115.2 minutes
Semi major axis: 7841 km
RCS: 0.6793 m2 (medium)
Launch date: March 24, 1989
Source: Commonwealth of Independent States (former USSR) (CIS)
Launch site: PLESETSK MISSILE AND SPACE COMPLEX (PKMTR)
aabbcc
Your satellite tracking list
Your tracking list is empty




NASA's NSSDC Master Catalog

Two Line Element Set (TLE):
1 19906U 89025E   17321.89585735 -.00000002 +00000-0 +94085-4 0  9996
2 19906 074.0072 147.7192 0010873 247.7396 218.7761 12.50198656307673
Source of the keplerian elements: AFSPC